Regional Weather Roundup
Issued by NWS

Home | Current Version | Previous Version | Graphics & Text | Print | Product List | Glossary On
Versions: 1 2 3 4 5 6 7 8 9 10 11 12 13 14 15 16 17 18 19 20 21 22 23 24 25 26 27 28 29 30 31 32 33 34 35 36 37 38 39 40 41 42 43 44 45 46 47 48 49 50
000
ASUS43 KMPX 172201
RWRMN
WEATHER ROUNDUP FOR MINNESOTA
NATIONAL WEATHER SERVICE TWIN CITIES/CHANHASSEN MN
500 PM CDT TUE OCT 17 2017


NOTE: "FAIR" INDICATES FEW OR NO CLOUDS BELOW 12,000 FEET WITH NO
SIGNIFICANT WEATHER AND/OR OBSTRUCTIONS TO VISIBILITY. N/A MEANS
CURRENT SKY AND/OR WEATHER CONDITIONS ARE NOT AVAILABLE.

MNZ060>063-068>070-172300-
   Twin Cities Metro

CITY           SKY/WX    TMP DP  RH WIND       PRES   REMARKS
TWIN CITIES    MOSUNNY   73  42  32 SW7       29.93S
ST PAUL        SUNNY     71  43  36 W7        29.94S
CRYSTAL        SUNNY     71  40  32 SW7       29.92S
BLAINE         MOSUNNY   73  43  33 SW7       29.93S
LAKEVILLE      SUNNY     72  41  33 CALM      29.94S
EDEN PRAIRIE   SUNNY     73  41  31 SW6       29.92S
SOUTH ST PAUL  SUNNY     73  39  29 SW6       29.93S
LAKE ELMO      FAIR      72  45  37 SW3       29.95S
$$
MNZ001>005-007-008-013>017-022>024-027-028-172300-
   Northwest Minnesota

CITY           SKY/WX    TMP DP  RH WIND       PRES   REMARKS
BEMIDJI        SUNNY     69  36  30 S12G22    29.79F
HALLOCK        SUNNY     75  28  17 SW18      29.65F
ROSEAU         SUNNY     72  39  30 S14       29.69F
WARROAD        SUNNY     72  43  35 S7        29.69F
THIEF RVR FALL MOSUNNY   72  41  33 S21G28    29.73F
CROOKSTON      SUNNY     75  37  25 SW20G26   29.70F
FOSSTON        SUNNY     72  36  26 S21G26    29.77F
DETROIT LAKES  SUNNY     70  39  32 S10       29.82F
MOORHEAD       SUNNY     75  37  25 SW15      29.78F
PARK RAPIDS    SUNNY     69  40  34 S12       29.83F
MAHNOMEN       FAIR      71  40  32 S20G26    29.78F
$$
MNZ006-009>011-018-025>026-172300-
   North Central Minnesota

CITY           SKY/WX    TMP DP  RH WIND       PRES   REMARKS
BAUDETTE       SUNNY     70  37  29 S13G24    29.73F
FLAG ISLAND    MOSUNNY   57  46  67 S10       29.67F
INTL FALLS     SUNNY     69  36  29 S9G18     29.77F
WASKISH        PTSUNNY   72  37  28 S9        29.76F
BIG FORK       MOSUNNY   66  37  34 SW12G20   29.82F
LONGVILLE      SUNNY     70  36  28 S6        29.85F
GRAND RAPIDS   SUNNY     68  39  34 SW7       29.87F
CRANE LAKE     SUNNY     68  34  28 S9        29.83F
ORR            SUNNY     68  28  22 SW8G16    29.81F
COOK           SUNNY     68  36  30 S8        29.85S
WALKER         FAIR      68  37  31 S7        29.82F
$$
MNZ012-019>021-037-172300-
   Northeast Minnesota

CITY           SKY/WX    TMP DP  RH WIND       PRES   REMARKS
DULUTH         SUNNY     66  40  38 SW8       29.89S
ELY            SUNNY     68  30  24 SW8       29.85F
HIBBING        SUNNY     67  34  29 VRB7      29.86F
EVELETH        SUNNY     67  10  11 SW9       29.88S
DULUTH HARBOR  SUNNY     70  43  37 SW8       29.88S
TWO HARBORS    SUNNY     70  45  40 S7        29.87S
SILVER BAY     SUNNY     66  39  37 S7        29.87F
GRAND MARAIS     N/A     53  47  79 S3        29.89F
G MARAIS ARPRT SUNNY     61  30  31 S8        29.91F
$$
MNZ029>031-032-039>041-046>048-054>057-064-172300-
   West Central Minnesota

CITY           SKY/WX    TMP DP  RH WIND       PRES   REMARKS
FERGUS FALLS   SUNNY     73  43  33 SW13      29.82F
WHEATON        SUNNY     75  34  22 S12       29.84F
MORRIS         SUNNY     75  43  31 SW8       29.86F
ALEXANDRIA     SUNNY     72  41  32 SW10      29.88F
ELBOW LAKE     FAIR      72  41  32 SW10      29.85F
WADENA         SUNNY     70  43  37 S10       29.85F
GLENWOOD       SUNNY     72  39  30 S12       29.89F
APPLETON       SUNNY     77  34  20 SW9       29.86F
BENSON         SUNNY     75  36  23 SW9       29.89F
ORTONVILLE     SUNNY     77  37  24 NW5       29.86F
MADISON        SUNNY     79  36  21 SW10      29.87F
WILLMAR        FAIR      75  39  27 W8        29.90F
$$
MNZ033>034-036-042>043-049>051-058-059-172300-
   Central Minnesota

CITY           SKY/WX    TMP DP  RH WIND       PRES   REMARKS
ST CLOUD       SUNNY     72  38  29 SW12      29.90F
SAUK CENTRE    FAIR      71  41  34 S6        29.89F
PAYNESVILLE    SUNNY     73  40  30 S7        29.91F
AITKIN         SUNNY     66  37  34 S7        29.87F
PINE RIVER     SUNNY     68  39  34 S9        29.89F
BRAINERD       CLOUDY    69  39  33 S7        29.88F
STAPLES        SUNNY     68  36  30 S8        29.87F
LONG PRAIRIE   FAIR      70  39  32 S9        29.89F
LITTLE FALLS   SUNNY     70  25  18 SW12      29.89F
LITCHFIELD     SUNNY     73  39  29 SW3       29.92S
BUFFALO        SUNNY     72  39  30 SW5       29.93F
MAPLE LAKE     SUNNY     73  42  32 SW3       29.92F
HUTCHINSON     SUNNY     76  41  28 SW6       29.92F
$$
MNZ037-044-045-052-053-172300-
   East Central Minnesota

CITY           SKY/WX    TMP DP  RH WIND       PRES   REMARKS
PRINCETON      SUNNY     72  43  35 S7        29.91F
MORA           SUNNY     68  37  32 SW9       29.92F
CAMBRIDGE      SUNNY     73  48  40 SW5       29.92S
RUSH CITY      SUNNY     70  40  34 S6        29.92S
MOOSE LAKE     SUNNY     70  43  37 S5        29.87F
HINCKLEY       FAIR      70  45  40 SW7       29.91S
CLOQUET        SUNNY     68  36  30 SW3       29.88F
MCGREGOR       SUNNY     68  39  34 S8        29.89S
$$
MNZ071>073-080-081-089-090-097-098-172300-
   Southwest Minnesota

CITY           SKY/WX    TMP DP  RH WIND       PRES   REMARKS
MONTEVIDEO     SUNNY     79  36  21 W9        29.89F
GRANITE FALLS  SUNNY     76  41  28 SW7       29.91F
CANBY          SUNNY     77  33  20 SW10      29.90S
MARSHALL       SUNNY     77  37  23 SW10      29.90F
REDWOOD FALLS  SUNNY     76  34  21 W8        29.90F
OLIVIA         SUNNY     73  37  27 W8        29.90F
PIPESTONE      SUNNY     75  36  23 W7        29.94F
WORTHINGTON    SUNNY     75  37  25 SW6       29.96F
JACKSON        SUNNY     73  34  23 SW7       29.96F
TRACY          SUNNY     76  39  26 SW8       29.92F
SLAYTON        SUNNY    N/A N/A N/A SW9       29.95F
$$
MNZ065>067-074>077-082>085-091>093-172300-
   South Central Minnesota

CITY           SKY/WX    TMP DP  RH WIND       PRES   REMARKS
MANKATO        SUNNY     75  38  26 SW10      29.93F
NEW ULM        SUNNY     75  34  22 SW8       29.92S
ST JAMES       SUNNY     75  34  22 SW10      29.94F
FAIRMONT       SUNNY     75  38  26 SW12      29.95
GLENCOE        SUNNY     75  39  27 SW6       29.92S
FARIBAULT      SUNNY     73  43  33 SW8       29.95S
OWATONNA       SUNNY     73  43  33 S10       29.95S
WASECA         SUNNY     73  37  27 S8        29.95F
ALBERT LEA     SUNNY     75  43  31 S7        29.97S
$$
MNZ078>079-086>088-094>096-172300-
   Southeast Minnesota

CITY           SKY/WX    TMP DP  RH WIND       PRES   REMARKS
ROCHESTER      SUNNY     70  46  42 S12       29.98F
RED WING       SUNNY     75  34  22 W5        29.93S
STANTON        SUNNY     74  39  27 SW8       29.93S
DODGE CENTER   SUNNY     72  39  30 S13       29.97S
WINONA         SUNNY     73  46  38 S3        29.97S
AUSTIN         SUNNY     70  45  40 S12       29.98S
PRESTON        SUNNY     69  42  37 S13       30.00F
$$
ABBREVIATIONS USED IN REMARKS
   TC - TEMPERATURES IN CELSIUS
  WCI - WIND CHILL INDEX
   HX - HEAT INDEX
  VSB - VISIBILITY
$$




USA.gov is the U.S. government's official web portal to all federal, state and local government web resources and services.